Погода в Саскатуне

Канада     52°09′04″N   106°38′49″W
темп.,
°C
ветер,
м/с
пор.,
м/с
влажн.,
%
обл.,
%
осадки,
мм/ч
давл.,
гПа
погр.,
м
8 мая, сб
сб800:00+9вюв81439100 0.0 1017762
03:00+7вюв61049100 0.0 1018715
06:00+6вюв61258100 0.0 1019657
09:00+8вюв71046100 0.0 1020988
12:00+12вюв8935100 0.0 10191899
15:00+14вюв8924100 0.0 10192232
18:00+13вюв7825100 0.0 10192239
21:00+9в5113587 0.0 1021288
9 мая, вс
вс900:00+6в4115015 0.0 1023298
03:00+4вюв49593 0.0 1024231
06:00+2в38640 0.0 1026189
09:00+8вюв45420 0.0 1026721
12:00+11вюв44290 0.0 10251553
15:00+14вюв33223 0.0 10231936
18:00+14вюв33205 0.0 10232117
21:00+10в33315 0.0 102435
10 мая, пн
пн1000:00+7юв34395 0.0 102557
03:00+5ююв334624 0.0 102529
06:00+4ююз335297 0.0 102636
09:00+10ю233688 0.0 1025342
12:00+15ю332415 0.0 10242011
15:00+17ююз332211 0.0 10222407
18:00+17ююз332320 0.0 10212414
21:00+12ююз223532 0.0 102112
11 мая, вт
вт1100:00+10ююз224350 0.0 102113
03:00+8зюз225090 0.0 102212
06:00+7ююз335475 0.0 102231
09:00+13ююз573829 0.0 1022640
12:00+17ююз562841 0.0 10202526
15:00+19юз562345 0.0 10183056
18:00+19юз452248 0.0 10172970
21:00+14ю48365 0.0 1017119
12 мая, ср
ср1200:00+12ююз484197 0.0 1017137
03:00+11ююз384499 0.0 1018136
06:00+10юз225053 0.0 101824
09:00+15юз3437100 0.0 1017458
12:00+20ююз342993 0.0 10152632
15:00+21ююз352497 0.0 10142919
18:00+17ссз984799 0.1 1014899
21:00+14св4761100 0.0 1014155